Regional Weather Roundup
Issued by NWS

Home | Current Version | Previous Version | Graphics & Text | Print | Product List | Glossary On
Versions: 1 2 3 4 5 6 7 8 9 10 11 12 13 14 15 16 17 18 19 20 21 22 23 24 25 26 27 28 29 30 31 32 33 34 35 36 37 38 39 40 41 42 43 44 45 46 47 48 49 50
000
ASUS45 KBOU 272007
RWRCO

WEATHER ROUNDUP FOR COLORADO
NATIONAL WEATHER SERVICE DENVER/BOULDER CO
200 PM MDT THU AUG 27 2015

NOTE: "FAIR" INDICATES FEW OR NO CLOUDS BELOW 12000 FEET WITH NO
SIGNIFICANT WEATHER AND/OR OBSTRUCTIONS TO VISIBILITY.

COZ001>005-013-030-031-272100-
...NORTHWEST COLORADO...

CITY           SKY/WX    TMP DP  RH WIND       PRES   REMARKS
CRAIG          CLOUDY    72  52  49 W13       30.29F
HAYDEN         NOT AVBL
MEEKER         PTSUNNY   68  56  65 SW5       30.31F
MOUNT WERNER   NOT AVBL
STEAMBOAT SPGS CLOUDY    61  56  84 SE3       30.34S
WALDEN         CLOUDY    61  50  67 N15       30.37S
$$

COZ006>008-011-272100-
...WEST CENTRAL VALLEYS...

CITY           SKY/WX    TMP DP  RH WIND       PRES   REMARKS
GRAND JUNCTION SUNNY     77  58  51 CALM      30.22F
MONTROSE       PTSUNNY   75  56  51 NW6       30.30F
EAGLE          PTSUNNY   72  55  56 SW14G20   30.32F
RIFLE          PTSUNNY   73  58  59 VRB5      30.26F
DELTA          RAIN      78  61  56 SW8       30.25F
NUCLA          MOSUNNY   75  54  46 SW3       30.34S
$$

COZ017>023-064>068-272100-
...SOUTHWEST COLORADO...

CITY           SKY/WX    TMP DP  RH WIND       PRES   REMARKS
DURANGO        LGT RAIN  71  56  58 SW7       30.33F
CORTEZ         SUNNY     79  58  48 S13G21    30.30F
PAGOSA SPRINGS HVY RAIN  65  54  66 CALM      30.41F
TELLURIDE      CLOUDY    57  52  81 CALM      30.54S
WOLF CREEK PAS LGT RAIN  43  43 100 SW6       30.69F VSB 3/4
$$

COZ009-010-012-014-032>034-037-058>063-272100-
...CENTRAL COLORADO...

CITY           SKY/WX    TMP DP  RH WIND       PRES   REMARKS
ASPEN          LGT RAIN  61  52  72 NW12      30.40S
BUENA VISTA    CLOUDY    72  42  33 W20G25    30.34F
COPPER MTN     CLOUDY    50  45  81 W24G31    30.64F
BERTHOUD PASS  DRZL/FOG  41  30  65 NW17G24   30.66F VSB 1/4
COTTONWOOD PAS CLOUDY    64  43  45 NW7       30.48F
GUNNISON       CLOUDY    64  50  59 SW9       30.42S
KREMMLING      CLOUDY    63  54  72 W5        30.36F
LEADVILLE      CLOUDY    59  43  55 NW9G21    30.49S
MONARCH PASS   LGT RAIN  45  45 100 W22G32    30.74S VSB<1/4
SALIDA         PTSUNNY   74  46  37 SW20G26   30.39F
SUNLIGHT       CLOUDY    54  52  94 CALM      30.61F THUNDER FOG
WILKERSON PASS CLOUDY    57  41  54 N6        30.60F
$$

COZ069>075-272100-
...SAN LUIS VALLEY/SANGRE DE CRISTO MOUNTAINS...

CITY           SKY/WX    TMP DP  RH WIND       PRES   REMARKS
ALAMOSA        CLOUDY    72  48  42 N10       30.34F
LA VETA PASS   MOSUNNY   64  43  45 S9G22     30.51F
SAGUACHE       CLOUDY    70  46  43 NW9       30.38F
$$

COZ035-036-038>040-272100-
...NORTHERN COLORADO FRONT RANGE...

CITY           SKY/WX    TMP DP  RH WIND       PRES   REMARKS
DENVER INTL AP MOSUNNY   87  48  25 N15G21    30.11F
DMNS CITY PARK   N/A     82  45  27 N15G25    30.11S
AURORA         PTSUNNY   82  48  30 W9        30.14F
FRONT RANGE AP PTSUNNY   84  45  24 N3G20     30.13F
ERIE MUNI ARPT PTSUNNY   86  44  23 W12G20    30.09F
BOULDER MUN AP LGT RAIN  81  50  34 N13       30.11S
CENTENNIAL     PTSUNNY   80  48  32 NE9       30.15F
BROOMFIELD     PTSUNNY   86  46  25 W21       30.15F
FORT COLLINS   PTSUNNY   70  59  68 N7        30.12R
LONGMONT       PTSUNNY   86  51  29 N5        30.12S
$$

COZ041-046-047-076>085-087-088-272100-
...PIKES PEAK/PALMER DIVIDE AND SOUTHERN FOOTHILLS...

CITY           SKY/WX    TMP DP  RH WIND       PRES   REMARKS
COLO. SPRINGS  LGT RAIN  72  54  53 W10       30.20S
A. F. ACADEMY  CLOUDY    79  48  32 S9        30.20S
ELLICOTT       PTSUNNY  N/A N/A N/A NW9       30.16F
FALCON         PTSUNNY   74  48  40 NE10      30.25S
FORT CARSON    HVY RAIN  70  58  66 N9G23     30.17R
LIMON          MOSUNNY   85  50  29 NW13      30.11F
MONUMENT HILL  CLOUDY    73  43  33 N6        30.25F
TRINIDAD       MOSUNNY   90  45  21 MISG      30.14F
$$

COZ042>045-048>051-090-091-272100-
...NORTHEAST COLORADO...

CITY           SKY/WX    TMP DP  RH WIND       PRES   REMARKS
GREELEY ARPT   MOSUNNY   84  50  30 NW16G22   30.08S
AKRON          MOSUNNY   89  47  23 NW17G26   30.04S
BURLINGTON     SUNNY     90  48  23 NW18G29   30.01F
WRAY           SUNNY     96  46  18 NW20G25   29.95S
STERLING       MOSUNNY   90  50  25 N20       29.98F
HOLYOKE        SUNNY     90  59  35 N21G26    29.96S
FORT MORGAN    PTSUNNY   89  45  21 NW20      30.05S
$$

COZ086-089-092>099-272100-
...SOUTHEAST COLORADO...

CITY           SKY/WX    TMP DP  RH WIND       PRES   REMARKS
PUEBLO         MOSUNNY   93  47  20 W10G20    30.04F
LA JUNTA       SUNNY     94  47  20 VRB5G18   30.02F
LAMAR          SUNNY     92  52  25 CALM      29.96F
SPRINGFIELD      N/A     88  49  25 N7G18     30.03F
$$




USA.gov is the U.S. government's official web portal to all federal, state and local government web resources and services.